Weather History for Imperial, CA

Change the Weather History Date:

Wednesday, December 12, 2012

  Actual Average Record
Temperature  
Mean Temperature 57 °F -  
Max Temperature 73 °F 69 °F 89 °F (2013)
Min Temperature 41 °F 41 °F 26 °F (1949)
Degree Days  
Heating Degree Days 8    
Growing Degree Days 7 (Base 50)    
Moisture  
Dew Point 39 °F    
Average Humidity 49    
Maximum Humidity 69    
Minimum Humidity 30    
Precipitation  
Precipitation 0.00 in - - ()
Sea Level Pressure  
Sea Level Pressure 29.87 in    
Wind  
Wind Speed 4 mph (SSE)    
Max Wind Speed 10 mph    
Max Gust Speed -    
Visibility 10 miles    
Events      
Averages and records for this station are not official NWS values.
T = Trace of Precipitation, MM = Missing Value Source: NWS Daily Summary

Daily Weather History Graph

Daily Weather History Graph

Search for Another Location

Airport:

Trip Planner

Search our weather history database for the weather conditions in past years. The results will help you decide how hot, cold, wet, or windy it might be!

Date:

Astronomy

Dec. 12, 2012 Rise Set
Actual Time 6:35 AM PST 4:36 PM PST
Civil Twilight 6:08 AM PST 5:04 PM PST
Nautical Twilight 5:37 AM PST 5:34 PM PST
Astronomical Twilight 5:07 AM PST 6:04 PM PST
Moon 5:46 AM PST (12/12) 4:17 PM PST (12/12)
Length of Visible Light 10h 55m
Length of Day
10h 01m
Waning Crescent, 0% of the Moon is Illuminated
Dec 12
Waning Crescent
Dec 13
New
Dec 19
First Quarter
Dec 28
Full
Jan 4
Last Quarter

Hourly Weather History & Observations

Time (PST) Temp. Windchill Dew Point Humidity Pressure Visibility Wind Dir Wind Speed Gust Speed Precip Events Conditions
12:53 AM 51.1 °F - 32.0 °F 48% 29.92 in 10.0 mi Calm Calm - N/A   Clear
1:53 AM 46.9 °F - 34.0 °F 61% 29.92 in 10.0 mi Calm Calm - N/A   Clear
2:53 AM 48.0 °F - 30.9 °F 52% 29.91 in 10.0 mi Calm Calm - N/A   Clear
3:53 AM 46.0 °F 41.9 °F 28.9 °F 51% 29.89 in 10.0 mi SE 8.1 mph - N/A   Clear
4:53 AM 46.9 °F - 28.0 °F 48% 29.89 in 10.0 mi SE 10.4 mph - N/A   Clear
5:53 AM 45.0 °F 43.5 °F 28.0 °F 52% 29.91 in 10.0 mi South 3.5 mph - N/A   Clear
6:53 AM 41.0 °F - 30.0 °F 65% 29.92 in 10.0 mi Calm Calm - N/A   Clear
7:53 AM 52.0 °F - 28.0 °F 40% 29.93 in 10.0 mi SSE 4.6 mph - N/A   Clear
8:53 AM 57.0 °F - 33.1 °F 40% 29.94 in 10.0 mi ESE 6.9 mph - N/A   Clear
9:53 AM 62.1 °F - 41.0 °F 46% 29.94 in 10.0 mi ESE 6.9 mph - N/A   Clear
10:53 AM 64.9 °F - 48.0 °F 54% 29.91 in 10.0 mi ESE 9.2 mph - N/A   Clear
11:02 AM 66.2 °F - 48.2 °F 52% 29.91 in 10.0 mi ESE 9.2 mph - N/A   Partly Cloudy
11:53 AM 68.0 °F - 46.0 °F 45% 29.88 in 10.0 mi South 8.1 mph - N/A   Clear
12:53 PM 71.1 °F - 46.9 °F 42% 29.85 in 10.0 mi SSE 8.1 mph - N/A   Clear
1:53 PM 72.0 °F - 50.0 °F 46% 29.82 in 10.0 mi SSE 5.8 mph - N/A   Clear
2:53 PM 73.9 °F - 48.0 °F 40% 29.80 in 10.0 mi SE 9.2 mph - N/A   Clear
3:53 PM 72.0 °F - 39.0 °F 30% 29.80 in 10.0 mi SSW 3.5 mph - N/A   Clear
4:53 PM 69.1 °F - 42.1 °F 38% 29.81 in 10.0 mi South 5.8 mph - N/A   Clear
5:53 PM 64.9 °F - 39.9 °F 40% 29.81 in 10.0 mi Calm Calm - N/A   Clear
6:53 PM 64.9 °F - 46.9 °F 52% 29.82 in 10.0 mi SE 3.5 mph - N/A   Clear
7:53 PM 63.0 °F - 43.0 °F 48% 29.82 in 10.0 mi North 6.9 mph - N/A   Clear
8:53 PM 63.0 °F - 41.0 °F 45% 29.83 in 10.0 mi NW 8.1 mph - N/A   Clear
9:53 PM 60.1 °F - 43.0 °F 53% 29.84 in 10.0 mi WNW 8.1 mph - N/A   Clear
10:53 PM 59.0 °F - 44.1 °F 58% 29.83 in 10.0 mi West 9.2 mph - N/A   Clear
11:53 PM 53.1 °F - 43.0 °F 69% 29.82 in 10.0 mi West 5.8 mph - N/A   Clear